Whidbey Island, WA
on Saturday, January 26, 2013

Saturday
Previous Day Next Day
Daily Summary
 ActualAverageRecord
Temperature
Mean Temperature °F °F  
Max Temperature 44°F 46°F 57°F (2003)
Min Temperature 37°F 35°F 19°F (1997)
Degree Days
Heating Degree Days 24    
Moisture
Dew Point 38°F   
Average Humidity 86    
Maximum Humidity 89    
Minimum Humidity 76    
Precipitation
Precipitation 0.51 in in in ()
Wind
Wind Speed 12 mph   
Max Wind Speed 22 mph   
Max Gust Speed 28 mph   
Visibility 9 miles   
Events Rain   
Averages and records for this station are not official NWS values.
Key: T is trace of precipitation, MM is missing value
Source: NWS Daily Summary
Seasonal Weather Averages
Time(PST)TemperatureDew PointHumidity Pressure Visibility Wind DirectionWind SpeedGust SpeedPrecipitationEvents Conditions
12:56 AM 41.0°F 37.0°F 86% 29.89 in 10.0 miles SE 15.0 mph - N/A   Mostly Cloudy
1:56 AM 42.1°F 36.0°F 79% 29.88 in 10.0 miles ESE 13.8 mph 21.9 mph N/A   Mostly Cloudy
2:56 AM 43.0°F 36.0°F 76% 29.88 in 10.0 miles SE 20.7 mph 26.5 mph N/A   Overcast
3:56 AM 43.0°F 37.9°F 82% 29.87 in 10.0 miles SE 17.3 mph - 0.00 in Rain Light Rain
4:56 AM 44.1°F 37.9°F 79% 29.86 in 10.0 miles SE 17.3 mph - 0.00 in   Overcast
5:36 AM 42.8°F 37.4°F 81% 29.85 in 10.0 miles SSE 19.6 mph 27.6 mph 0.00 in Rain Light Rain
5:38 AM 42.8°F 37.4°F 81% 29.85 in 10.0 miles SSE 21.9 mph 27.6 mph 0.00 in Rain Light Rain
5:56 AM 42.1°F 37.0°F 82% 29.86 in 10.0 miles SSE 13.8 mph - 0.00 in Rain Light Rain
6:38 AM 42.8°F 37.4°F 81% 29.86 in 10.0 miles SE 11.5 mph - 0.00 in Rain Light Rain
6:56 AM 42.1°F 37.9°F 85% 29.88 in 10.0 miles ESE 10.4 mph - 0.01 in Rain Light Rain
7:56 AM 41.0°F 37.0°F 86% 29.88 in 6.0 miles SE 13.8 mph - 0.07 in Rain Light Rain
8:56 AM 39.9°F 37.0°F 89% 29.90 in 4.0 miles South 15.0 mph 21.9 mph 0.11 in Rain Rain
9:56 AM 39.9°F 37.0°F 89% 29.92 in 5.0 miles SE 6.9 mph - 0.12 in Rain Rain
10:56 AM 39.9°F 37.0°F 89% 29.93 in 5.0 miles SSE 8.1 mph - 0.10 in Rain Rain
11:56 AM 39.9°F 37.0°F 89% 29.94 in 8.0 miles SE 6.9 mph - 0.06 in Rain Light Rain
12:56 PM 39.9°F 37.0°F 89% 29.93 in 8.0 miles SE 8.1 mph - 0.03 in Rain Light Rain
1:56 PM 41.0°F 37.9°F 89% 29.93 in 10.0 miles SE 5.8 mph - 0.00 in Rain Light Rain
2:15 PM 41.0°F 37.4°F 87% 29.92 in 10.0 miles SE 5.8 mph - 0.00 in   Overcast
2:56 PM 42.1°F 39.0°F 89% 29.94 in 10.0 miles SSE 8.1 mph - 0.00 in   Overcast
3:11 PM 42.8°F 39.2°F 87% 29.93 in 10.0 miles SSE 6.9 mph - 0.00 in Rain Light Rain
3:56 PM 42.1°F 39.0°F 89% 29.95 in 10.0 miles SE 4.6 mph - 0.00 in Rain Light Rain
4:33 PM 42.8°F 39.2°F 87% 29.93 in 10.0 miles SE 4.6 mph - 0.01 in   Mostly Cloudy
4:56 PM 41.0°F 37.9°F 89% 29.95 in 10.0 miles ESE 4.6 mph - 0.01 in   Mostly Cloudy
5:35 PM 41.0°F 37.4°F 87% 29.95 in 10.0 miles SE 5.8 mph - N/A   Overcast
5:56 PM 41.0°F 37.9°F 89% 29.97 in 10.0 miles South 5.8 mph - N/A   Overcast
6:56 PM 43.0°F 39.0°F 86% 29.98 in 10.0 miles SW 8.1 mph - N/A   Mostly Cloudy
7:56 PM 44.1°F 39.9°F 85% 29.99 in 10.0 miles West 12.7 mph - N/A   Mostly Cloudy
8:56 PM 43.0°F 39.0°F 86% 30.00 in 10.0 miles WNW 5.8 mph - N/A   Mostly Cloudy
9:56 PM 39.9°F 37.0°F 89% 30.01 in 10.0 miles ESE 3.5 mph - 0.00 in   Mostly Cloudy
10:56 PM 37.9°F 35.1°F 89% 30.03 in 4.0 miles ESE 5.8 mph - N/A   Mostly Cloudy
11:56 PM 39.9°F 37.0°F 89% 30.03 in 10.0 miles SSE 4.6 mph - N/A   Overcast
Moon Phase
Jan. 26 Jan. 26 Feb. 03 Feb. 10 Feb. 17
Sunrise:07:46 AM (PST) Moon Rise:05:05 PM (PST)1/26
Sunset:05:00 PM (PST) Moon Set:07:04 AM (PST)1/26

Copyright © 2014 The Weather Underground, Inc.